User: anonymous   Login
Location: Caltech
(34.1382°N, 118.1253°W)
Time: 00:24:55
(UTC-07:00)
Language:

Lacrosse 5 - Orbit

View from above orbital plane
View from above orbital plane
View from above satellite
View from above satellite

Ground track
Ground track

The orbit data is extracted from the following two-line orbital elements,

1 28646U 05016A   15141.93192936 0.00000000  00000-0  00000-0 0    05
2 28646  57.0110  72.2325 0006000 164.6377 195.3622 14.52251232    08
Epoch (UTC): 21 May 2015 22:21:58
Eccentricity: 0.0006000
inclination: 57.0110°
perigee height: 714 km
apogee height: 722 km
right ascension of ascending node: 72.2325°
argument of perigee: 164.6377°
revolutions per day: 14.52251232
mean anomaly at epoch: 195.3622°
orbit number at epoch: 0

The dashed part of the orbit path shows where the satellite is in the earth's shadow,  

DLR